M I D A S
Marine Information and Data Acquisition System
Tripno 146 of the Zeeleeuw from 2001-08-02 01:00:02 to 2001-08-02 21:00:00
Back to CruiseResearch ActivitiesStationsMapUnderway DataData graphs

EquipmentUnitsComments
TimeDGPSUTC
LatitudeDGPSDM.mWGS84
LongitudeDGPSDM.mWGS84
SpeedMeteo Stationm/sRelative wind speed
DirectionMeteo StationdegRelative wind direction
TemperatureMeteo Stationdeg CelciusAir temperature
PressureMeteo StationPaAtmospheric pressure
HumidityMeteo Station%Relative humidity
Missing or incorrect values are displayed as -999
Metereological data collected by the RV Zeeleeuw from 2001-08-02 01:00:02 to 2001-08-02 21:00:00
                                                                                    Next 1000 lines
Time Latitude Longitude Speed Direction Temperature Pressure Humidity
2001-08-02 01:00:12 51°13.676 2°55.925 3.8 36 15.6 101830 82
2001-08-02 01:00:17 51°13.676 2°55.925 4.3 44 15.6 101830 82
2001-08-02 01:00:22 51°13.676 2°55.925 2 44 15.6 101830 82
2001-08-02 01:00:27 51°13.676 2°55.925 1.8 45 15.6 101830 82
2001-08-02 01:00:32 51°13.676 2°55.925 3.7 49 15.6 101830 82
2001-08-02 01:00:37 51°13.676 2°55.925 3.3 33 15.6 101830 82
2001-08-02 01:00:42 51°13.676 2°55.925 2.2 32 15.6 101830 82
2001-08-02 01:00:47 51°13.676 2°55.925 2.4 32 15.6 101830 82
2001-08-02 01:00:52 51°13.676 2°55.925 2 31 15.6 101830 82
2001-08-02 01:00:57 51°13.676 2°55.925 2 38 15.6 101830 82
2001-08-02 01:01:02 51°13.676 2°55.925 3.1 23 15.6 101830 82
2001-08-02 01:01:07 51°13.676 2°55.925 3 23 15.6 101830 82
2001-08-02 01:01:12 51°13.676 2°55.925 3.2 33 15.6 101830 82
2001-08-02 01:01:17 51°13.676 2°55.925 3 35 15.6 101830 82
2001-08-02 01:01:22 51°13.676 2°55.925 3.6 34 15.6 101830 82
2001-08-02 01:01:27 51°13.676 2°55.925 1.9 38 15.6 101830 82
2001-08-02 01:01:32 51°13.676 2°55.925 2 42 15.6 101830 82
2001-08-02 01:01:37 51°13.676 2°55.925 1.9 47 15.6 101830 82
2001-08-02 01:01:41 51°13.676 2°55.925 2.2 32 15.6 101830 82
2001-08-02 01:01:47 51°13.676 2°55.925 2.3 319 15.6 101830 82
2001-08-02 01:01:52 51°13.676 2°55.925 3.6 35 15.6 101830 82
2001-08-02 01:01:57 51°13.676 2°55.925 2.1 32 15.6 101830 82
2001-08-02 01:02:02 51°13.676 2°55.925 3.1 35 15.6 101830 82
2001-08-02 01:02:07 51°13.676 2°55.925 2.9 36 15.6 101830 82
2001-08-02 01:02:12 51°13.676 2°55.925 1.5 37 15.6 101830 82
2001-08-02 01:02:17 51°13.676 2°55.925 1.7 38 15.6 101830 82
2001-08-02 01:02:22 51°13.676 2°55.925 2.8 36 15.6 101830 82
2001-08-02 01:02:27 51°13.676 2°55.926 1.4 44 15.6 101830 82
2001-08-02 01:02:32 51°13.676 2°55.926 2 48 15.6 101830 82
2001-08-02 01:02:37 51°13.676 2°55.926 2 47 15.6 101830 82
2001-08-02 01:02:42 51°13.676 2°55.926 2.4 316 15.6 101830 82
2001-08-02 01:02:47 51°13.676 2°55.926 3.3 31 15.6 101830 82
2001-08-02 01:02:52 51°13.676 2°55.926 1.6 48 15.6 101830 82
2001-08-02 01:02:57 51°13.676 2°55.926 1.7 28 15.6 101830 82
2001-08-02 01:03:02 51°13.676 2°55.926 2.3 28 15.6 101830 82
2001-08-02 01:03:07 51°13.676 2°55.926 1.3 40 15.6 101830 82
2001-08-02 01:03:12 51°13.676 2°55.926 1.3 38 15.6 101830 82
2001-08-02 01:03:17 51°13.676 2°55.926 2.7 41 15.6 101830 82
2001-08-02 01:03:22 51°13.676 2°55.926 2.2 42 15.6 101830 82
2001-08-02 01:03:27 51°13.676 2°55.926 2.8 35 15.6 101830 82
2001-08-02 01:03:32 51°13.676 2°55.926 1.8 40 15.6 101830 82
2001-08-02 01:03:37 51°13.676 2°55.926 2.9 34 15.6 101830 82
2001-08-02 01:03:42 51°13.676 2°55.926 2.9 31 15.6 101830 82
2001-08-02 01:03:47 51°13.676 2°55.926 2.2 38 15.6 101830 82
2001-08-02 01:03:52 51°13.676 2°55.926 1 49 15.6 101830 82
2001-08-02 01:03:57 51°13.676 2°55.926 1.6 39 15.6 101830 82
2001-08-02 01:04:02 51°13.676 2°55.926 1.8 44 15.6 101830 82
2001-08-02 01:04:07 51°13.676 2°55.926 3.2 44 15.6 101830 82
2001-08-02 01:04:12 51°13.676 2°55.926 2.4 40 15.6 101830 82
2001-08-02 01:04:17 51°13.676 2°55.926 3.1 37 15.6 101830 82
2001-08-02 01:04:22 51°13.676 2°55.926 2.7 40 15.6 101830 82
2001-08-02 01:04:27 51°13.676 2°55.926 2.6 317 15.6 101830 82
2001-08-02 01:04:32 51°13.676 2°55.926 2 317 15.6 101830 82
2001-08-02 01:04:37 51°13.676 2°55.926 3 39 15.6 101830 82
2001-08-02 01:04:42 51°13.676 2°55.926 2.7 39 15.6 101830 82
2001-08-02 01:04:47 51°13.676 2°55.926 2.9 33 15.6 101830 82
2001-08-02 01:04:52 51°13.676 2°55.926 3.1 50 15.6 101830 82
2001-08-02 01:04:57 51°13.676 2°55.926 3.2 24 15.6 101830 82
2001-08-02 01:05:02 51°13.677 2°55.926 4.6 30 15.6 101830 82
2001-08-02 01:05:07 51°13.677 2°55.926 3.4 26 15.6 101830 82
2001-08-02 01:05:12 51°13.677 2°55.926 2.8 17 15.6 101830 82
2001-08-02 01:05:17 51°13.677 2°55.926 1.7 51 15.5 101830 82
2001-08-02 01:05:22 51°13.677 2°55.926 2 43 15.5 101830 82
2001-08-02 01:05:27 51°13.677 2°55.926 1.9 317 15.6 101830 82
2001-08-02 01:05:32 51°13.677 2°55.926 2.3 33 15.6 101830 82
2001-08-02 01:05:37 51°13.677 2°55.925 2 32 15.5 101830 82
2001-08-02 01:05:42 51°13.677 2°55.925 2.8 33 15.5 101830 82
2001-08-02 01:05:47 51°13.677 2°55.925 2.1 33 15.5 101830 82
2001-08-02 01:05:52 51°13.677 2°55.925 1.2 41 15.5 101830 82
2001-08-02 01:05:57 51°13.677 2°55.925 2 28 15.6 101830 82
2001-08-02 01:06:02 51°13.677 2°55.925 2 35 15.6 101830 82
2001-08-02 01:06:07 51°13.677 2°55.925 2.2 39 15.5 101830 82
2001-08-02 01:06:12 51°13.677 2°55.925 3.5 35 15.5 101830 82
2001-08-02 01:06:17 51°13.677 2°55.925 3.7 28 15.5 101830 82
2001-08-02 01:06:21 51°13.677 2°55.925 2.4 37 15.5 101830 82
2001-08-02 01:06:27 51°13.677 2°55.925 2 40 15.5 101830 82
2001-08-02 01:06:32 51°13.677 2°55.925 1.8 44 15.5 101830 82
2001-08-02 01:06:37 51°13.677 2°55.925 2.9 31 15.5 101830 83
2001-08-02 01:06:42 51°13.677 2°55.925 2.2 41 15.5 101830 83
2001-08-02 01:06:47 51°13.677 2°55.925 1.7 43 15.5 101830 83
2001-08-02 01:06:52 51°13.677 2°55.925 3.2 28 15.5 101830 83
2001-08-02 01:06:57 51°13.677 2°55.925 2.2 32 15.5 101830 83
2001-08-02 01:07:02 51°13.677 2°55.925 1.9 24 15.5 101830 83
2001-08-02 01:07:07 51°13.677 2°55.925 1.5 37 15.5 101830 83
2001-08-02 01:07:12 51°13.677 2°55.925 1.5 41 15.5 101830 83
2001-08-02 01:07:17 51°13.677 2°55.925 1.6 45 15.5 101830 83
2001-08-02 01:07:22 51°13.677 2°55.925 1.5 36 15.5 101830 83
2001-08-02 01:07:27 51°13.677 2°55.925 3 36 15.5 101830 83
2001-08-02 01:07:32 51°13.677 2°55.925 3.3 31 15.5 101830 83
2001-08-02 01:07:37 51°13.677 2°55.925 2.7 22 15.5 101840 83
2001-08-02 01:07:42 51°13.677 2°55.925 2.6 50 15.5 101840 83
2001-08-02 01:07:47 51°13.677 2°55.925 3.5 28 15.5 101830 83
2001-08-02 01:07:52 51°13.677 2°55.925 3 32 15.5 101830 83
2001-08-02 01:07:57 51°13.677 2°55.925 3.4 22 15.5 101840 83
2001-08-02 01:08:01 51°13.677 2°55.925 3.8 33 15.5 101840 83
2001-08-02 01:08:07 51°13.677 2°55.925 3.7 31 15.5 101830 83
2001-08-02 01:08:12 51°13.677 2°55.924 3.5 35 15.5 101830 83
2001-08-02 01:08:17 51°13.677 2°55.924 2.6 37 15.5 101840 83
2001-08-02 01:08:22 51°13.677 2°55.924 4.8 30 15.5 101840 83
2001-08-02 01:08:27 51°13.677 2°55.924 4.6 41 15.5 101840 83
2001-08-02 01:08:32 51°13.677 2°55.924 3.7 39 15.5 101840 83
2001-08-02 01:08:37 51°13.677 2°55.924 3.3 31 15.5 101840 83
2001-08-02 01:08:42 51°13.677 2°55.924 3.1 33 15.5 101840 83
2001-08-02 01:08:47 51°13.677 2°55.924 3.2 32 15.5 101840 83
2001-08-02 01:08:52 51°13.677 2°55.924 2.4 28 15.5 101840 83
2001-08-02 01:08:57 51°13.677 2°55.924 2.7 30 15.5 101840 83
2001-08-02 01:09:02 51°13.677 2°55.924 2.5 34 15.5 101840 83
2001-08-02 01:09:07 51°13.677 2°55.924 2.4 32 15.5 101840 83
2001-08-02 01:09:12 51°13.677 2°55.924 2.6 33 15.5 101840 83
2001-08-02 01:09:17 51°13.677 2°55.924 1.9 34 15.5 101840 83
2001-08-02 01:09:22 51°13.677 2°55.924 3.5 20 15.5 101840 83
2001-08-02 01:09:27 51°13.677 2°55.924 3 38 15.5 101840 83
2001-08-02 01:09:32 51°13.677 2°55.924 2.9 37 15.5 101840 83
2001-08-02 01:09:37 51°13.677 2°55.924 2.5 26 15.5 101840 83
2001-08-02 01:09:42 51°13.677 2°55.924 3.2 27 15.5 101840 83
2001-08-02 01:09:47 51°13.677 2°55.925 4 31 15.5 101840 83
2001-08-02 01:09:52 51°13.677 2°55.925 2.9 30 15.5 101840 83
2001-08-02 01:09:57 51°13.677 2°55.925 2.6 35 15.5 101840 83
2001-08-02 01:10:02 51°13.677 2°55.925 1.8 35 15.5 101840 83
2001-08-02 01:10:07 51°13.677 2°55.925 1.5 317 15.5 101840 83
2001-08-02 01:10:12 51°13.677 2°55.925 0.9 44 15.5 101840 83
2001-08-02 01:10:17 51°13.677 2°55.924 1.4 43 15.5 101840 83
2001-08-02 01:10:21 51°13.677 2°55.924 1.2 45 15.5 101840 83
2001-08-02 01:10:27 51°13.677 2°55.924 1.5 42 15.5 101840 83
2001-08-02 01:10:32 51°13.677 2°55.924 1.7 43 15.5 101840 83
2001-08-02 01:10:37 51°13.677 2°55.924 1.1 41 15.5 101840 83
2001-08-02 01:10:42 51°13.677 2°55.924 2.2 26 15.5 101840 83
2001-08-02 01:10:47 51°13.677 2°55.924 1.6 38 15.5 101840 83
2001-08-02 01:10:52 51°13.677 2°55.924 2.2 29 15.5 101840 83
2001-08-02 01:10:57 51°13.677 2°55.924 2.4 29 15.5 101840 83
2001-08-02 01:11:02 51°13.677 2°55.924 1.5 42 15.5 101840 83
2001-08-02 01:11:07 51°13.677 2°55.924 1.3 132 15.5 101840 83
2001-08-02 01:11:12 51°13.677 2°55.924 3.2 33 15.5 101840 83
2001-08-02 01:11:17 51°13.677 2°55.924 3.5 33 15.5 101840 83
2001-08-02 01:11:22 51°13.677 2°55.924 3 24 15.5 101840 83
2001-08-02 01:11:27 51°13.677 2°55.924 2.3 37 15.5 101840 83
2001-08-02 01:11:32 51°13.677 2°55.925 2.3 31 15.5 101840 83
2001-08-02 01:11:37 51°13.677 2°55.925 3.6 133 15.5 101840 83
2001-08-02 01:11:42 51°13.677 2°55.925 3.4 36 15.5 101840 83
2001-08-02 01:11:47 51°13.677 2°55.925 4.6 34 15.5 101840 83
2001-08-02 01:11:52 51°13.677 2°55.925 3.7 316 15.5 101840 83
2001-08-02 01:11:57 51°13.677 2°55.926 2.7 317 15.5 101840 83
2001-08-02 01:12:02 51°13.677 2°55.926 2 31 15.5 101840 83
2001-08-02 01:12:07 51°13.677 2°55.926 1.9 268 15.5 101840 83
2001-08-02 01:12:12 51°13.677 2°55.926 2.6 36 15.5 101840 83
2001-08-02 01:12:17 51°13.677 2°55.926 2.2 133 15.5 101840 83
2001-08-02 01:12:22 51°13.677 2°55.926 1.8 42 15.5 101840 83
2001-08-02 01:12:27 51°13.677 2°55.926 2.6 15 15.5 101840 83
2001-08-02 01:12:32 51°13.677 2°55.925 2.4 18 15.5 101840 83
2001-08-02 01:12:37 51°13.677 2°55.925 2.8 30 15.5 101840 83
2001-08-02 01:12:42 51°13.677 2°55.925 3.5 32 15.5 101840 83
2001-08-02 01:12:47 51°13.677 2°55.925 3.5 30 15.5 101840 83
2001-08-02 01:12:52 51°13.677 2°55.925 3.4 42 15.5 101840 83
2001-08-02 01:12:57 51°13.677 2°55.924 2.9 33 15.5 101840 83
2001-08-02 01:13:02 51°13.677 2°55.924 2.6 27 15.5 101840 83
2001-08-02 01:13:07 51°13.677 2°55.924 2.7 30 15.5 101840 83
2001-08-02 01:13:12 51°13.677 2°55.924 2.4 25 15.5 101840 83
2001-08-02 01:13:17 51°13.677 2°55.924 4.2 133 15.5 101840 83
2001-08-02 01:13:22 51°13.677 2°55.924 2.3 33 15.5 101840 83
2001-08-02 01:13:27 51°13.677 2°55.924 3.7 31 15.5 101840 83
2001-08-02 01:13:32 51°13.677 2°55.924 3.2 19 15.5 101840 83
2001-08-02 01:13:37 51°13.677 2°55.924 3.2 31 15.5 101840 83
2001-08-02 01:13:42 51°13.677 2°55.924 2.2 18 15.5 101840 83
2001-08-02 01:13:47 51°13.677 2°55.924 2.9 37 15.5 101840 83
2001-08-02 01:13:52 51°13.677 2°55.924 2.2 34 15.5 101840 83
2001-08-02 01:13:57 51°13.677 2°55.924 1.5 38 15.5 101840 83
2001-08-02 01:14:02 51°13.677 2°55.925 2.3 34 15.5 101840 83
2001-08-02 01:14:07 51°13.677 2°55.925 2.3 34 15.5 101840 83
2001-08-02 01:14:12 51°13.677 2°55.925 2.8 41 15.5 101840 83
2001-08-02 01:14:17 51°13.677 2°55.925 2.9 37 15.5 101840 83
2001-08-02 01:14:22 51°13.677 2°55.925 2.6 7 15.5 101840 83
2001-08-02 01:14:27 51°13.677 2°55.925 2.3 43 15.5 101840 83
2001-08-02 01:14:32 51°13.677 2°55.925 3.2 15 15.5 101840 83
2001-08-02 01:14:37 51°13.677 2°55.925 4.2 31 15.5 101840 83
2001-08-02 01:14:42 51°13.676 2°55.925 2.8 35 15.5 101840 83
2001-08-02 01:14:47 51°13.676 2°55.926 3.1 34 15.5 101840 83
2001-08-02 01:14:52 51°13.676 2°55.926 2.8 36 15.5 101840 83
2001-08-02 01:14:57 51°13.676 2°55.926 2 37 15.4 101840 83
2001-08-02 01:15:02 51°13.676 2°55.926 1.8 46 15.4 101840 83
2001-08-02 01:15:07 51°13.676 2°55.926 1.8 33 15.5 101840 83
2001-08-02 01:15:12 51°13.676 2°55.926 2.5 23 15.5 101840 83
2001-08-02 01:15:17 51°13.676 2°55.926 2 22 15.5 101840 83
2001-08-02 01:15:22 51°13.676 2°55.926 2.6 32 15.5 101840 83
2001-08-02 01:15:27 51°13.676 2°55.926 2.7 44 15.5 101840 83
2001-08-02 01:15:32 51°13.676 2°55.926 2.7 28 15.5 101840 83
2001-08-02 01:15:37 51°13.676 2°55.926 3.5 31 15.5 101840 83
2001-08-02 01:15:42 51°13.676 2°55.926 2.9 34 15.5 101840 83
2001-08-02 01:15:47 51°13.676 2°55.926 2.8 30 15.5 101830 83
2001-08-02 01:15:52 51°13.676 2°55.926 2.7 26 15.5 101830 83
2001-08-02 01:15:57 51°13.676 2°55.926 3 28 15.5 101840 83
2001-08-02 01:16:02 51°13.676 2°55.926 1.6 37 15.5 101840 83
2001-08-02 01:16:07 51°13.676 2°55.926 1.7 44 15.5 101830 83
2001-08-02 01:16:12 51°13.676 2°55.926 1.4 45 15.5 101830 83
2001-08-02 01:16:17 51°13.676 2°55.926 2.3 43 15.4 101840 83
2001-08-02 01:16:22 51°13.676 2°55.926 2.2 318 15.4 101840 83
2001-08-02 01:16:27 51°13.676 2°55.926 1.8 41 15.4 101830 83
2001-08-02 01:16:32 51°13.676 2°55.926 1.8 37 15.4 101830 83
2001-08-02 01:16:37 51°13.676 2°55.926 2.5 33 15.5 101840 83
2001-08-02 01:16:42 51°13.676 2°55.926 2.1 38 15.5 101840 83
2001-08-02 01:16:47 51°13.676 2°55.926 1.8 42 15.5 101830 83
2001-08-02 01:16:52 51°13.676 2°55.926 2.3 38 15.5 101830 83
2001-08-02 01:16:57 51°13.676 2°55.926 3.1 30 15.5 101830 83
2001-08-02 01:17:02 51°13.676 2°55.926 2.6 26 15.5 101830 83
2001-08-02 01:17:07 51°13.676 2°55.926 2.3 36 15.5 101830 83
2001-08-02 01:17:12 51°13.676 2°55.926 2.6 37 15.5 101830 83
2001-08-02 01:17:17 51°13.676 2°55.926 2.2 38 15.4 101830 83
2001-08-02 01:17:21 51°13.676 2°55.926 1.4 41 15.4 101830 83
2001-08-02 01:17:27 51°13.676 2°55.926 2 30 15.4 101840 83
2001-08-02 01:17:32 51°13.676 2°55.926 3 20 15.4 101840 83
2001-08-02 01:17:37 51°13.676 2°55.926 3.3 34 15.5 101830 83
2001-08-02 01:17:42 51°13.676 2°55.926 2.6 31 15.5 101830 83
2001-08-02 01:17:47 51°13.676 2°55.926 2.9 34 15.4 101830 83
2001-08-02 01:17:52 51°13.676 2°55.926 1.7 44 15.4 101830 83
2001-08-02 01:17:57 51°13.676 2°55.926 1.5 40 15.4 101830 83
2001-08-02 01:18:02 51°13.676 2°55.926 4 35 15.4 101830 83
2001-08-02 01:18:07 51°13.676 2°55.926 3.7 34 15.4 101830 83
2001-08-02 01:18:12 51°13.676 2°55.926 3.4 29 15.4 101830 83
2001-08-02 01:18:17 51°13.676 2°55.926 3.6 43 15.4 101830 83
2001-08-02 01:18:22 51°13.676 2°55.926 3.5 32 15.4 101830 83
2001-08-02 01:18:27 51°13.676 2°55.926 1.9 37 15.4 101830 83
2001-08-02 01:18:32 51°13.676 2°55.926 1.4 41 15.4 101830 83
2001-08-02 01:18:37 51°13.676 2°55.925 1.6 40 15.4 101830 83
2001-08-02 01:18:42 51°13.676 2°55.925 2.9 38 15.4 101830 83
2001-08-02 01:18:47 51°13.676 2°55.925 2.7 35 15.4 101830 83
2001-08-02 01:18:52 51°13.676 2°55.925 3 32 15.4 101830 83
2001-08-02 01:18:57 51°13.676 2°55.925 3.7 33 15.4 101830 83
2001-08-02 01:19:02 51°13.676 2°55.925 3.2 32 15.4 101830 83
2001-08-02 01:19:07 51°13.676 2°55.925 1.8 133 15.4 101830 83
2001-08-02 01:19:12 51°13.676 2°55.926 1.8 46 15.4 101830 83
2001-08-02 01:19:17 51°13.676 2°55.926 2.1 39 15.4 101820 83
2001-08-02 01:19:22 51°13.676 2°55.926 4.7 36 15.4 101820 83
2001-08-02 01:19:27 51°13.676 2°55.926 4.3 22 15.4 101820 83
2001-08-02 01:19:32 51°13.676 2°55.926 5.2 31 15.4 101820 83
2001-08-02 01:19:37 51°13.676 2°55.926 4.9 38 15.4 101830 83
2001-08-02 01:19:42 51°13.676 2°55.926 3.7 34 15.4 101830 83
2001-08-02 01:19:47 51°13.676 2°55.926 2.3 43 15.4 101820 83
2001-08-02 01:19:52 51°13.676 2°55.925 2.9 44 15.4 101820 83
2001-08-02 01:19:57 51°13.676 2°55.925 3.5 31 15.4 101820 83
2001-08-02 01:20:02 51°13.676 2°55.925 1.5 41 15.4 101820 83
2001-08-02 01:20:07 51°13.676 2°55.925 2.3 43 15.4 101820 83
2001-08-02 01:20:12 51°13.676 2°55.925 3.4 33 15.4 101820 83
2001-08-02 01:20:17 51°13.676 2°55.925 3.5 30 15.4 101820 83
2001-08-02 01:20:22 51°13.676 2°55.925 3.4 35 15.4 101820 83
2001-08-02 01:20:27 51°13.676 2°55.925 3.5 29 15.4 101820 83
2001-08-02 01:20:32 51°13.677 2°55.925 2 46 15.4 101820 83
2001-08-02 01:20:37 51°13.677 2°55.925 3 38 15.4 101820 83
2001-08-02 01:20:42 51°13.677 2°55.925 2.6 37 15.4 101820 83
2001-08-02 01:20:47 51°13.677 2°55.925 2.3 39 15.4 101820 83
2001-08-02 01:20:52 51°13.677 2°55.925 3.1 34 15.4 101820 83
2001-08-02 01:20:57 51°13.677 2°55.925 3.1 24 15.4 101820 83
2001-08-02 01:21:02 51°13.677 2°55.925 2.4 36 15.4 101820 83
2001-08-02 01:21:07 51°13.677 2°55.925 1.4 41 15.4 101820 83
2001-08-02 01:21:12 51°13.677 2°55.925 1.3 42 15.4 101820 83
2001-08-02 01:21:17 51°13.677 2°55.925 1.3 35 15.5 101820 83
2001-08-02 01:21:22 51°13.677 2°55.925 2 38 15.5 101820 83
2001-08-02 01:21:27 51°13.677 2°55.925 1.6 40 15.4 101820 83
2001-08-02 01:21:32 51°13.677 2°55.925 1.6 42 15.4 101820 83
2001-08-02 01:21:37 51°13.677 2°55.925 3.3 41 15.4 101820 83
2001-08-02 01:21:42 51°13.677 2°55.925 2.2 38 15.4 101820 83
2001-08-02 01:21:47 51°13.677 2°55.925 5 26 15.5 101820 83
2001-08-02 01:21:52 51°13.677 2°55.925 3.2 45 15.5 101820 83
2001-08-02 01:21:57 51°13.677 2°55.925 2.7 45 15.4 101820 83
2001-08-02 01:22:02 51°13.677 2°55.925 3.4 35 15.4 101820 83
2001-08-02 01:22:07 51°13.677 2°55.925 4.6 37 15.4 101820 83
2001-08-02 01:22:12 51°13.677 2°55.925 3.7 36 15.4 101820 83
2001-08-02 01:22:17 51°13.677 2°55.925 4.8 32 15.4 101810 83
2001-08-02 01:22:22 51°13.677 2°55.925 2.5 132 15.4 101810 83
2001-08-02 01:22:27 51°13.677 2°55.925 2.4 134 15.4 101810 83
2001-08-02 01:22:32 51°13.677 2°55.925 3.4 35 15.4 101810 83
2001-08-02 01:22:37 51°13.677 2°55.925 4.5 32 15.4 101810 83
2001-08-02 01:22:42 51°13.677 2°55.925 2.5 39 15.4 101810 83
2001-08-02 01:22:47 51°13.677 2°55.925 4.1 38 15.4 101810 83
2001-08-02 01:22:52 51°13.677 2°55.925 2 46 15.4 101810 83
2001-08-02 01:22:57 51°13.677 2°55.925 3.4 51 15.4 101810 83
2001-08-02 01:23:02 51°13.677 2°55.925 3.7 33 15.4 101810 83
2001-08-02 01:23:07 51°13.677 2°55.925 4.1 34 15.4 101810 83
2001-08-02 01:23:12 51°13.677 2°55.925 4.5 31 15.4 101810 83
2001-08-02 01:23:17 51°13.677 2°55.925 4.1 33 15.4 101810 83
2001-08-02 01:23:22 51°13.677 2°55.925 4.5 34 15.4 101810 83
2001-08-02 01:23:27 51°13.677 2°55.925 4.4 31 15.4 101810 83
2001-08-02 01:23:32 51°13.677 2°55.925 1.8 39 15.4 101810 83
2001-08-02 01:23:37 51°13.677 2°55.925 4.3 25 15.4 101810 83
2001-08-02 01:23:42 51°13.677 2°55.925 4.8 32 15.4 101810 83
2001-08-02 01:23:47 51°13.677 2°55.925 4.4 33 15.4 101810 83
2001-08-02 01:23:52 51°13.677 2°55.925 3.9 36 15.4 101810 83
2001-08-02 01:23:57 51°13.677 2°55.925 1.9 40 15.4 101810 83
2001-08-02 01:24:02 51°13.677 2°55.925 3.6 23 15.4 101810 83
2001-08-02 01:24:07 51°13.677 2°55.925 3.7 33 15.4 101800 83
2001-08-02 01:24:12 51°13.677 2°55.925 3.7 37 15.4 101800 83
2001-08-02 01:24:17 51°13.677 2°55.925 4.2 25 15.4 101800 83
2001-08-02 01:24:22 51°13.677 2°55.925 3.1 31 15.4 101800 83
2001-08-02 01:24:27 51°13.677 2°55.925 4.3 29 15.4 101800 83
2001-08-02 01:24:32 51°13.677 2°55.925 4.8 37 15.4 101800 83
2001-08-02 01:24:37 51°13.677 2°55.925 4.2 33 15.4 101810 83
2001-08-02 01:24:42 51°13.677 2°55.925 4.9 31 15.4 101810 83
2001-08-02 01:24:47 51°13.677 2°55.925 4.4 35 15.4 101800 83
2001-08-02 01:24:52 51°13.677 2°55.925 3.4 35 15.4 101800 83
2001-08-02 01:24:57 51°13.677 2°55.925 1.6 37 15.4 101800 83
2001-08-02 01:25:02 51°13.677 2°55.925 3 31 15.4 101800 83
2001-08-02 01:25:07 51°13.677 2°55.925 3.3 33 15.4 101800 83
2001-08-02 01:25:12 51°13.677 2°55.925 3.6 25 15.4 101800 83
2001-08-02 01:25:17 51°13.677 2°55.925 4.2 26 15.5 101800 83
2001-08-02 01:25:22 51°13.677 2°55.925 3.4 40 15.5 101800 83
2001-08-02 01:25:27 51°13.677 2°55.925 2.6 39 15.4 101800 83
2001-08-02 01:25:32 51°13.677 2°55.925 4.5 31 15.4 101800 83
2001-08-02 01:25:37 51°13.677 2°55.925 3.9 20 15.4 101800 83
2001-08-02 01:25:42 51°13.677 2°55.925 3.6 45 15.4 101800 83
2001-08-02 01:25:47 51°13.677 2°55.925 4 41 15.5 101800 83
2001-08-02 01:25:52 51°13.677 2°55.925 2.3 29 15.5 101800 83
2001-08-02 01:25:57 51°13.677 2°55.925 4 36 15.5 101800 83
2001-08-02 01:26:02 51°13.677 2°55.925 2.3 52 15.5 101800 83
2001-08-02 01:26:07 51°13.677 2°55.925 2.1 35 15.5 101800 83
2001-08-02 01:26:12 51°13.677 2°55.925 1.7 317 15.5 101800 83
2001-08-02 01:26:17 51°13.677 2°55.925 3.3 31 15.5 101800 83
2001-08-02 01:26:22 51°13.677 2°55.925 3.1 31 15.5 101800 83
2001-08-02 01:26:27 51°13.677 2°55.925 2.7 42 15.4 101800 83
2001-08-02 01:26:32 51°13.677 2°55.925 2.1 38 15.4 101800 83
2001-08-02 01:26:37 51°13.677 2°55.925 1.9 39 15.5 101800 83
2001-08-02 01:26:42 51°13.677 2°55.925 2.3 34 15.5 101800 83
2001-08-02 01:26:47 51°13.677 2°55.925 2.1 46 15.5 101800 83
2001-08-02 01:26:52 51°13.677 2°55.925 2.6 36 15.5 101800 83
2001-08-02 01:26:57 51°13.677 2°55.925 1.6 42 15.5 101800 83
2001-08-02 01:27:02 51°13.677 2°55.925 1.8 45 15.5 101800 83
2001-08-02 01:27:07 51°13.677 2°55.925 1.6 43 15.5 101800 83
2001-08-02 01:27:12 51°13.677 2°55.925 1.5 42 15.5 101800 83
2001-08-02 01:27:17 51°13.677 2°55.926 2.3 28 15.5 101800 83
2001-08-02 01:27:22 51°13.677 2°55.926 2.1 55 15.5 101800 83
2001-08-02 01:27:27 51°13.677 2°55.926 1.6 43 15.5 101800 83
2001-08-02 01:27:32 51°13.677 2°55.926 2.6 38 15.5 101800 83
2001-08-02 01:27:37 51°13.677 2°55.926 2.4 316 15.5 101800 83
2001-08-02 01:27:42 51°13.677 2°55.926 1.6 41 15.5 101800 83
2001-08-02 01:27:47 51°13.677 2°55.926 2.4 39 15.5 101800 83
2001-08-02 01:27:52 51°13.677 2°55.926 2.7 35 15.5 101800 83
2001-08-02 01:27:57 51°13.677 2°55.926 2.5 42 15.5 101800 83
2001-08-02 01:28:02 51°13.677 2°55.926 2.9 33 15.5 101800 83
2001-08-02 01:28:07 51°13.677 2°55.926 2.7 34 15.4 101800 83
2001-08-02 01:28:12 51°13.677 2°55.926 3.3 44 15.4 101800 83
2001-08-02 01:28:17 51°13.677 2°55.926 2.8 35 15.5 101800 83
2001-08-02 01:28:22 51°13.677 2°55.926 3.6 32 15.5 101800 83
2001-08-02 01:28:27 51°13.677 2°55.926 2.9 36 15.5 101800 83
2001-08-02 01:28:32 51°13.677 2°55.926 2.5 36 15.5 101800 83
2001-08-02 01:28:37 51°13.677 2°55.926 2 39 15.5 101800 83
2001-08-02 01:28:42 51°13.677 2°55.926 1.7 46 15.5 101800 83
2001-08-02 01:28:47 51°13.677 2°55.925 2.4 37 15.5 101800 83
2001-08-02 01:28:52 51°13.677 2°55.925 3.1 27 15.5 101800 83
2001-08-02 01:28:57 51°13.677 2°55.925 2.5 16 15.4 101800 83
2001-08-02 01:29:02 51°13.677 2°55.925 2.8 34 15.4 101800 83
2001-08-02 01:29:07 51°13.677 2°55.925 3.1 36 15.5 101800 83
2001-08-02 01:29:12 51°13.677 2°55.925 1.7 46 15.5 101800 83
2001-08-02 01:29:17 51°13.677 2°55.925 1.7 41 15.4 101800 83
2001-08-02 01:29:22 51°13.677 2°55.925 2 41 15.4 101800 83
2001-08-02 01:29:27 51°13.677 2°55.926 1.6 45 15.4 101800 83
2001-08-02 01:29:32 51°13.677 2°55.926 1.7 40 15.4 101800 83
2001-08-02 01:29:37 51°13.677 2°55.926 1.5 39 15.5 101800 83
2001-08-02 01:29:42 51°13.677 2°55.926 1.6 32 15.5 101800 83
2001-08-02 01:29:47 51°13.677 2°55.926 1.5 40 15.4 101800 83
2001-08-02 01:29:52 51°13.677 2°55.926 2.7 35 15.4 101800 83
2001-08-02 01:29:57 51°13.677 2°55.926 2.3 42 15.4 101800 83
2001-08-02 01:30:02 51°13.677 2°55.926 2.6 30 15.4 101800 83
2001-08-02 01:30:07 51°13.677 2°55.926 2.4 28 15.4 101800 83
2001-08-02 01:30:12 51°13.677 2°55.926 1.5 39 15.4 101800 83
2001-08-02 01:30:17 51°13.677 2°55.926 2.8 34 15.4 101800 83
2001-08-02 01:30:22 51°13.677 2°55.926 2.7 40 15.4 101800 83
2001-08-02 01:30:27 51°13.677 2°55.926 3.8 34 15.4 101800 83
2001-08-02 01:30:32 51°13.677 2°55.926 2.6 34 15.4 101800 83
2001-08-02 01:30:37 51°13.677 2°55.926 2.4 41 15.4 101800 83
2001-08-02 01:30:42 51°13.677 2°55.926 2.4 40 15.4 101800 83
2001-08-02 01:30:47 51°13.677 2°55.926 4.3 30 15.4 101800 83
2001-08-02 01:30:52 51°13.677 2°55.926 3.5 31 15.4 101800 83
2001-08-02 01:30:57 51°13.677 2°55.926 3.3 33 15.4 101800 83
2001-08-02 01:31:02 51°13.677 2°55.926 3.3 31 15.4 101800 83
2001-08-02 01:31:07 51°13.677 2°55.926 3.5 31 15.4 101800 83
2001-08-02 01:31:12 51°13.677 2°55.926 3.7 30 15.4 101800 83
2001-08-02 01:31:17 51°13.677 2°55.926 3.9 30 15.4 101800 83
2001-08-02 01:31:22 51°13.677 2°55.926 4.5 38 15.4 101800 83
2001-08-02 01:31:27 51°13.677 2°55.926 2.7 36 15.4 101800 83
2001-08-02 01:31:32 51°13.677 2°55.926 3.8 30 15.4 101800 83
2001-08-02 01:31:37 51°13.677 2°55.926 3.1 33 15.4 101800 83
2001-08-02 01:31:42 51°13.677 2°55.926 2.6 35 15.4 101800 83
2001-08-02 01:31:47 51°13.677 2°55.926 3.3 35 15.4 101800 83
2001-08-02 01:31:52 51°13.677 2°55.926 3.6 27 15.4 101800 83
2001-08-02 01:31:57 51°13.677 2°55.926 3.2 12 15.4 101800 83
2001-08-02 01:32:02 51°13.677 2°55.926 2.9 36 15.4 101800 83
2001-08-02 01:32:07 51°13.677 2°55.926 3 44 15.4 101800 83
2001-08-02 01:32:12 51°13.677 2°55.926 3.1 30 15.4 101800 83
2001-08-02 01:32:17 51°13.677 2°55.926 2.4 34 15.4 101800 83
2001-08-02 01:32:22 51°13.677 2°55.926 3.1 34 15.4 101800 83
2001-08-02 01:32:27 51°13.677 2°55.926 1.8 38 15.4 101800 83
2001-08-02 01:32:32 51°13.677 2°55.926 4 33 15.4 101800 83
2001-08-02 01:32:37 51°13.677 2°55.925 4 29 15.4 101800 83
2001-08-02 01:32:42 51°13.677 2°55.925 4.1 26 15.4 101800 83
2001-08-02 01:32:47 51°13.677 2°55.925 1.9 37 15.4 101800 83
2001-08-02 01:32:52 51°13.677 2°55.925 2.6 43 15.4 101800 83
2001-08-02 01:32:57 51°13.677 2°55.925 2.1 39 15.4 101800 83
2001-08-02 01:33:02 51°13.677 2°55.925 2.4 47 15.4 101800 83
2001-08-02 01:33:07 51°13.677 2°55.925 2.8 19 15.4 101800 83
2001-08-02 01:33:12 51°13.677 2°55.925 2.1 30 15.4 101800 83
2001-08-02 01:33:17 51°13.677 2°55.925 3.2 39 15.4 101800 83
2001-08-02 01:33:22 51°13.677 2°55.925 2.7 26 15.4 101800 83
2001-08-02 01:33:27 51°13.677 2°55.925 2.6 22 15.4 101800 83
2001-08-02 01:33:32 51°13.677 2°55.925 3 30 15.4 101800 83
2001-08-02 01:33:37 51°13.677 2°55.925 2.9 38 15.4 101800 83
2001-08-02 01:33:42 51°13.677 2°55.925 2.8 35 15.4 101800 83
2001-08-02 01:33:47 51°13.677 2°55.925 2.8 30 15.4 101800 83
2001-08-02 01:33:52 51°13.677 2°55.925 2.5 33 15.4 101800 83
2001-08-02 01:33:57 51°13.677 2°55.925 2.2 34 15.4 101800 83
2001-08-02 01:34:02 51°13.677 2°55.925 1.8 34 15.4 101800 83
2001-08-02 01:34:07 51°13.677 2°55.925 2.1 27 15.4 101800 83
2001-08-02 01:34:12 51°13.677 2°55.925 2.2 39 15.4 101800 83
2001-08-02 01:34:17 51°13.677 2°55.925 2 28 15.4 101800 83
2001-08-02 01:34:22 51°13.677 2°55.925 2.1 17 15.4 101800 83
2001-08-02 01:34:27 51°13.677 2°55.925 1.8 46 15.4 101800 83
2001-08-02 01:34:32 51°13.677 2°55.925 2.6 35 15.4 101800 83
2001-08-02 01:34:37 51°13.677 2°55.925 1.8 32 15.4 101800 83
2001-08-02 01:34:42 51°13.677 2°55.925 2 37 15.4 101800 83
2001-08-02 01:34:47 51°13.677 2°55.925 2.4 38 15.4 101800 83
2001-08-02 01:34:52 51°13.677 2°55.925 3 35 15.4 101800 83
2001-08-02 01:34:57 51°13.677 2°55.925 2.2 38 15.4 101800 83
2001-08-02 01:35:02 51°13.677 2°55.925 1.5 37 15.4 101800 83
2001-08-02 01:35:07 51°13.677 2°55.925 1.8 36 15.4 101800 83
2001-08-02 01:35:12 51°13.677 2°55.925 0.8 39 15.4 101800 83
2001-08-02 01:35:17 51°13.677 2°55.925 1 39 15.4 101800 83
2001-08-02 01:35:22 51°13.677 2°55.925 2 41 15.4 101800 83
2001-08-02 01:35:27 51°13.677 2°55.925 1.4 133 15.4 101800 83
2001-08-02 01:35:32 51°13.677 2°55.925 1.2 36 15.4 101800 83
2001-08-02 01:35:37 51°13.677 2°55.925 1.5 35 15.4 101800 83
2001-08-02 01:35:42 51°13.677 2°55.925 1.5 25 15.4 101800 83
2001-08-02 01:35:47 51°13.677 2°55.925 1.5 31 15.4 101800 83
2001-08-02 01:35:52 51°13.677 2°55.925 1.9 34 15.4 101800 83
2001-08-02 01:35:57 51°13.677 2°55.925 2 46 15.4 101800 83
2001-08-02 01:36:02 51°13.677 2°55.925 1.5 319 15.4 101800 83
2001-08-02 01:36:07 51°13.677 2°55.925 2 48 15.4 101800 83
2001-08-02 01:36:12 51°13.677 2°55.925 1.4 133 15.4 101800 83
2001-08-02 01:36:17 51°13.677 2°55.925 1.6 58 15.4 101790 83
2001-08-02 01:36:22 51°13.677 2°55.925 1.2 44 15.4 101790 83
2001-08-02 01:36:27 51°13.677 2°55.925 2 36 15.4 101790 83
2001-08-02 01:36:32 51°13.677 2°55.925 1.5 41 15.4 101790 83
2001-08-02 01:36:37 51°13.677 2°55.925 2.5 27 15.4 101800 83
2001-08-02 01:36:42 51°13.677 2°55.925 2.4 28 15.4 101800 83
2001-08-02 01:36:47 51°13.677 2°55.925 3.1 29 15.4 101800 83
2001-08-02 01:36:52 51°13.677 2°55.925 1.6 39 15.4 101800 83
2001-08-02 01:36:57 51°13.677 2°55.925 2.5 9 15.4 101800 83
2001-08-02 01:37:02 51°13.677 2°55.925 1.6 42 15.4 101800 83
2001-08-02 01:37:07 51°13.677 2°55.925 1.9 37 15.4 101800 83
2001-08-02 01:37:12 51°13.677 2°55.925 2.6 26 15.4 101800 83
2001-08-02 01:37:17 51°13.677 2°55.925 1.7 38 15.4 101790 83
2001-08-02 01:37:22 51°13.677 2°55.925 1.6 40 15.4 101790 83
2001-08-02 01:37:27 51°13.677 2°55.925 1.4 44 15.4 101790 83
2001-08-02 01:37:32 51°13.677 2°55.925 1.7 43 15.4 101790 83
2001-08-02 01:37:37 51°13.677 2°55.925 1.7 41 15.4 101790 83
2001-08-02 01:37:42 51°13.677 2°55.925 2.9 33 15.4 101790 83
2001-08-02 01:37:47 51°13.677 2°55.925 3.1 37 15.4 101790 83
2001-08-02 01:37:52 51°13.677 2°55.925 2.6 25 15.4 101790 83
2001-08-02 01:37:57 51°13.677 2°55.925 2.4 38 15.4 101790 83
2001-08-02 01:38:02 51°13.677 2°55.925 1.2 41 15.4 101790 83
2001-08-02 01:38:07 51°13.677 2°55.925 1.2 43 15.4 101790 83
2001-08-02 01:38:12 51°13.677 2°55.925 1.8 45 15.4 101790 83
2001-08-02 01:38:17 51°13.677 2°55.925 2.2 41 15.4 101790 83
2001-08-02 01:38:22 51°13.677 2°55.925 1.7 30 15.4 101790 83
2001-08-02 01:38:27 51°13.677 2°55.925 1 62 15.4 101790 83
2001-08-02 01:38:32 51°13.677 2°55.925 1.6 318 15.4 101790 83
2001-08-02 01:38:37 51°13.677 2°55.925 1.6 47 15.4 101790 83
2001-08-02 01:38:42 51°13.677 2°55.925 2.1 35 15.4 101790 83
2001-08-02 01:38:47 51°13.677 2°55.925 1.8 44 15.4 101790 83
2001-08-02 01:38:52 51°13.677 2°55.925 1.8 133 15.4 101790 83
2001-08-02 01:38:57 51°13.677 2°55.925 2.1 43 15.4 101790 83
2001-08-02 01:39:02 51°13.677 2°55.925 2.2 42 15.4 101790 83
2001-08-02 01:39:07 51°13.677 2°55.925 2.6 49 15.4 101790 83
2001-08-02 01:39:12 51°13.677 2°55.925 2.5 50 15.4 101790 83
2001-08-02 01:39:17 51°13.677 2°55.925 2.4 317 15.4 101790 83
2001-08-02 01:39:22 51°13.677 2°55.925 1.3 40 15.4 101790 83
2001-08-02 01:39:27 51°13.677 2°55.925 1.7 37 15.3 101790 83
2001-08-02 01:39:32 51°13.677 2°55.925 1.3 38 15.3 101790 83
2001-08-02 01:39:37 51°13.677 2°55.925 1.9 34 15.4 101790 83
2001-08-02 01:39:42 51°13.677 2°55.925 2.1 26 15.4 101790 83
2001-08-02 01:39:47 51°13.677 2°55.925 2.1 35 15.4 101780 84
2001-08-02 01:39:52 51°13.677 2°55.925 2 36 15.4 101780 84
2001-08-02 01:39:57 51°13.677 2°55.925 2 34 15.4 101790 84
2001-08-02 01:40:02 51°13.677 2°55.925 1.5 39 15.4 101790 84
2001-08-02 01:40:07 51°13.677 2°55.925 1.5 317 15.3 101780 84
2001-08-02 01:40:12 51°13.677 2°55.925 1.9 44 15.3 101780 84
2001-08-02 01:40:17 51°13.677 2°55.925 2.2 317 15.4 101780 84
2001-08-02 01:40:22 51°13.677 2°55.925 2.2 38 15.4 101780 84
2001-08-02 01:40:27 51°13.677 2°55.925 1.5 51 15.4 101780 84
2001-08-02 01:40:32 51°13.677 2°55.925 1.2 46 15.4 101780 84
2001-08-02 01:40:37 51°13.677 2°55.925 1.6 316 15.3 101780 84
2001-08-02 01:40:42 51°13.677 2°55.925 1.1 317 15.3 101780 84
2001-08-02 01:40:47 51°13.677 2°55.925 1.2 317 15.3 101780 84
2001-08-02 01:40:52 51°13.677 2°55.925 1.1 45 15.3 101780 84
2001-08-02 01:40:57 51°13.677 2°55.925 1.4 44 15.3 101780 84
2001-08-02 01:41:02 51°13.677 2°55.925 1.1 44 15.3 101780 84
2001-08-02 01:41:07 51°13.677 2°55.925 1.1 42 15.3 101780 84
2001-08-02 01:41:12 51°13.677 2°55.924 1.4 317 15.3 101780 84
2001-08-02 01:41:17 51°13.677 2°55.924 2.7 23 15.3 101780 84
2001-08-02 01:41:22 51°13.677 2°55.924 1.9 43 15.3 101780 84
2001-08-02 01:41:27 51°13.677 2°55.924 3.2 39 15.3 101780 84
2001-08-02 01:41:32 51°13.677 2°55.924 1.3 258 15.3 101780 84
2001-08-02 01:41:37 51°13.677 2°55.924 1.4 274 15.3 101780 84
2001-08-02 01:41:42 51°13.677 2°55.924 2.4 39 15.3 101780 84
2001-08-02 01:41:47 51°13.677 2°55.924 2.6 34 15.3 101780 84
2001-08-02 01:41:52 51°13.677 2°55.924 1.9 38 15.3 101780 84
2001-08-02 01:41:57 51°13.677 2°55.924 2.4 32 15.3 101770 84
2001-08-02 01:42:02 51°13.677 2°55.924 2.2 40 15.3 101770 84
2001-08-02 01:42:07 51°13.677 2°55.924 2.2 319 15.3 101770 84
2001-08-02 01:42:12 51°13.677 2°55.924 2.9 44 15.3 101770 84
2001-08-02 01:42:17 51°13.677 2°55.924 3.2 131 15.3 101770 84
2001-08-02 01:42:22 51°13.677 2°55.924 2 39 15.3 101770 84
2001-08-02 01:42:27 51°13.677 2°55.924 1.7 43 15.3 101770 84
2001-08-02 01:42:32 51°13.677 2°55.924 2.1 317 15.3 101770 84
2001-08-02 01:42:37 51°13.677 2°55.924 1.6 43 15.3 101770 84
2001-08-02 01:42:42 51°13.677 2°55.924 2.1 43 15.3 101770 84
2001-08-02 01:42:47 51°13.677 2°55.924 2.5 48 15.3 101770 84
2001-08-02 01:42:52 51°13.677 2°55.924 2 45 15.3 101770 84
2001-08-02 01:42:57 51°13.677 2°55.924 1.9 46 15.3 101770 84
2001-08-02 01:43:02 51°13.677 2°55.924 2.5 43 15.3 101770 84
2001-08-02 01:43:07 51°13.677 2°55.924 2.2 44 15.3 101770 84
2001-08-02 01:43:12 51°13.677 2°55.924 2.3 44 15.3 101770 84
2001-08-02 01:43:17 51°13.677 2°55.924 1.9 42 15.3 101770 84
2001-08-02 01:43:22 51°13.677 2°55.924 2.3 44 15.3 101770 84
2001-08-02 01:43:27 51°13.677 2°55.924 1.9 41 15.3 101770 84
2001-08-02 01:43:32 51°13.677 2°55.924 3.5 32 15.3 101770 84
2001-08-02 01:43:37 51°13.677 2°55.924 2 42 15.3 101770 84
2001-08-02 01:43:42 51°13.677 2°55.924 1.8 42 15.3 101770 84
2001-08-02 01:43:47 51°13.677 2°55.924 2.2 44 15.3 101770 84
2001-08-02 01:43:52 51°13.677 2°55.924 2.7 47 15.3 101770 84
2001-08-02 01:43:57 51°13.677 2°55.924 3.5 39 15.3 101760 84
2001-08-02 01:44:02 51°13.677 2°55.924 4 29 15.3 101760 84
2001-08-02 01:44:07 51°13.677 2°55.924 4.1 31 15.3 101760 84
2001-08-02 01:44:12 51°13.677 2°55.924 1.9 46 15.3 101760 84
2001-08-02 01:44:17 51°13.677 2°55.924 2.2 34 15.3 101760 84
2001-08-02 01:44:22 51°13.677 2°55.924 4.2 33 15.3 101760 84
2001-08-02 01:44:27 51°13.677 2°55.924 2 45 15.3 101760 84
2001-08-02 01:44:32 51°13.677 2°55.924 2.2 317 15.3 101760 84
2001-08-02 01:44:37 51°13.677 2°55.924 2.6 37 15.3 101770 84
2001-08-02 01:44:42 51°13.677 2°55.924 2.6 37 15.3 101770 84
2001-08-02 01:44:47 51°13.677 2°55.924 3.1 34 15.3 101760 84
2001-08-02 01:44:52 51°13.677 2°55.924 3.6 34 15.3 101760 84
2001-08-02 01:44:57 51°13.677 2°55.924 2.3 34 15.3 101760 84
2001-08-02 01:45:02 51°13.677 2°55.924 2.6 36 15.3 101760 84
2001-08-02 01:45:07 51°13.676 2°55.924 2.3 39 15.3 101760 84
2001-08-02 01:45:12 51°13.676 2°55.924 3.1 35 15.3 101760 84
2001-08-02 01:45:17 51°13.676 2°55.924 3.1 36 15.3 101760 84
2001-08-02 01:45:22 51°13.676 2°55.924 3 37 15.3 101760 84
2001-08-02 01:45:27 51°13.676 2°55.924 2.5 50 15.3 101760 84
2001-08-02 01:45:32 51°13.676 2°55.924 3.1 15 15.3 101760 84
2001-08-02 01:45:37 51°13.676 2°55.924 2.6 132 15.2 101760 84
2001-08-02 01:45:42 51°13.676 2°55.924 2.9 317 15.2 101760 84
2001-08-02 01:45:47 51°13.676 2°55.924 2.1 40 15.2 101760 83
2001-08-02 01:45:52 51°13.676 2°55.923 3.4 43 15.2 101760 83
2001-08-02 01:45:57 51°13.676 2°55.923 2.1 38 15.2 101760 83
2001-08-02 01:46:02 51°13.676 2°55.924 2.9 42 15.2 101760 83
2001-08-02 01:46:07 51°13.676 2°55.924 4.1 51 15.3 101760 83
2001-08-02 01:46:12 51°13.676 2°55.923 3.6 317 15.3 101760 83
2001-08-02 01:46:17 51°13.676 2°55.923 4.4 29 15.2 101760 83
2001-08-02 01:46:22 51°13.676 2°55.923 2.6 36 15.2 101760 83
2001-08-02 01:46:27 51°13.676 2°55.923 2.4 37 15.2 101760 83
2001-08-02 01:46:32 51°13.676 2°55.923 2.1 318 15.2 101760 83
2001-08-02 01:46:37 51°13.676 2°55.923 2.3 34 15.2 101760 83
2001-08-02 01:46:42 51°13.676 2°55.923 1.7 318 15.2 101760 83
2001-08-02 01:46:47 51°13.676 2°55.923 1.9 34 15.2 101760 83
2001-08-02 01:46:52 51°13.676 2°55.923 3 35 15.2 101760 83
2001-08-02 01:46:57 51°13.676 2°55.923 2.6 45 15.2 101760 83
2001-08-02 01:47:02 51°13.676 2°55.923 2.8 47 15.2 101760 83
2001-08-02 01:47:07 51°13.676 2°55.923 2.6 39 15.2 101760 83
2001-08-02 01:47:12 51°13.676 2°55.923 2.6 41 15.2 101760 83
2001-08-02 01:47:17 51°13.676 2°55.923 1.9 40 15.2 101760 83
2001-08-02 01:47:22 51°13.676 2°55.923 2.4 40 15.2 101760 83
2001-08-02 01:47:27 51°13.676 2°55.923 4.3 35 15.2 101760 83
2001-08-02 01:47:32 51°13.676 2°55.923 5.1 32 15.2 101760 83
2001-08-02 01:47:37 51°13.676 2°55.923 4.5 29 15.2 101760 83
2001-08-02 01:47:42 51°13.676 2°55.923 3.2 36 15.2 101760 83
2001-08-02 01:47:47 51°13.676 2°55.923 3.1 34 15.2 101760 83
2001-08-02 01:47:52 51°13.676 2°55.924 2.7 40 15.2 101760 83
2001-08-02 01:47:57 51°13.676 2°55.924 3.4 34 15.2 101760 83
2001-08-02 01:48:02 51°13.676 2°55.924 2.2 40 15.2 101760 83
2001-08-02 01:48:07 51°13.676 2°55.924 3.4 32 15.2 101760 83
2001-08-02 01:48:12 51°13.676 2°55.924 2.2 42 15.2 101760 83
2001-08-02 01:48:17 51°13.676 2°55.923 3.6 41 15.2 101760 83
2001-08-02 01:48:22 51°13.676 2°55.923 2.3 35 15.2 101760 83
2001-08-02 01:48:27 51°13.676 2°55.923 2.7 19 15.2 101760 83
2001-08-02 01:48:32 51°13.676 2°55.923 1.7 35 15.2 101760 83
2001-08-02 01:48:37 51°13.676 2°55.923 1.6 39 15.2 101760 83
2001-08-02 01:48:42 51°13.676 2°55.923 3.2 33 15.2 101760 83
2001-08-02 01:48:47 51°13.676 2°55.923 3.3 32 15.2 101760 83
2001-08-02 01:48:52 51°13.676 2°55.923 2.4 52 15.2 101760 83
2001-08-02 01:48:57 51°13.676 2°55.923 3.1 45 15.2 101760 83
2001-08-02 01:49:02 51°13.676 2°55.923 4.8 30 15.2 101760 83
2001-08-02 01:49:07 51°13.676 2°55.923 5 34 15.2 101760 83
2001-08-02 01:49:12 51°13.676 2°55.923 2.7 40 15.2 101760 83
2001-08-02 01:49:17 51°13.677 2°55.923 3.5 42 15.2 101760 83
2001-08-02 01:49:22 51°13.677 2°55.923 3.9 38 15.2 101760 83
2001-08-02 01:49:27 51°13.677 2°55.923 2.4 42 15.2 101760 83
2001-08-02 01:49:32 51°13.677 2°55.923 3.4 35 15.2 101760 83
2001-08-02 01:49:37 51°13.677 2°55.923 3 34 15.2 101760 83
2001-08-02 01:49:42 51°13.677 2°55.923 1.9 40 15.2 101760 83
2001-08-02 01:49:47 51°13.677 2°55.923 1.7 37 15.2 101760 83
2001-08-02 01:49:52 51°13.677 2°55.924 2.1 41 15.2 101760 83
2001-08-02 01:49:57 51°13.677 2°55.924 2.4 33 15.2 101760 83
2001-08-02 01:50:02 51°13.677 2°55.924 2.2 40 15.2 101760 83
2001-08-02 01:50:07 51°13.677 2°55.924 2.9 38 15.2 101760 83
2001-08-02 01:50:12 51°13.677 2°55.924 2.4 41 15.2 101760 83
2001-08-02 01:50:17 51°13.677 2°55.924 2.2 31 15.2 101760 83
2001-08-02 01:50:22 51°13.677 2°55.924 3 42 15.2 101760 83
2001-08-02 01:50:27 51°13.677 2°55.924 4.2 30 15.2 101760 83
2001-08-02 01:50:32 51°13.677 2°55.924 2.6 41 15.2 101760 83
2001-08-02 01:50:37 51°13.677 2°55.924 3.4 41 15.2 101760 83
2001-08-02 01:50:42 51°13.677 2°55.924 5 33 15.2 101760 83
2001-08-02 01:50:47 51°13.677 2°55.924 2.2 41 15.2 101760 83
2001-08-02 01:50:52 51°13.677 2°55.924 2 43 15.2 101760 83
2001-08-02 01:50:57 51°13.677 2°55.924 1.7 317 15.2 101760 83
2001-08-02 01:51:02 51°13.677 2°55.924 2.1 37 15.2 101760 83
2001-08-02 01:51:07 51°13.677 2°55.924 2.1 36 15.2 101760 83
2001-08-02 01:51:12 51°13.677 2°55.924 3.1 316 15.2 101760 83
2001-08-02 01:51:17 51°13.677 2°55.924 2.4 40 15.2 101760 83
2001-08-02 01:51:22 51°13.677 2°55.924 4.2 31 15.2 101760 83
2001-08-02 01:51:27 51°13.677 2°55.924 3.7 40 15.2 101760 83
2001-08-02 01:51:32 51°13.677 2°55.924 3.1 32 15.2 101760 83
2001-08-02 01:51:37 51°13.677 2°55.924 1.6 41 15.2 101760 83
2001-08-02 01:51:42 51°13.677 2°55.924 2.4 29 15.2 101760 83
2001-08-02 01:51:47 51°13.677 2°55.924 2.6 43 15.2 101760 83
2001-08-02 01:51:52 51°13.677 2°55.924 2.6 36 15.2 101760 83
2001-08-02 01:51:57 51°13.677 2°55.924 3.1 47 15.2 101760 83
2001-08-02 01:52:02 51°13.677 2°55.924 2 43 15.2 101760 83
2001-08-02 01:52:07 51°13.677 2°55.924 3.6 28 15.2 101750 83
2001-08-02 01:52:12 51°13.677 2°55.924 2.4 42 15.2 101750 83
2001-08-02 01:52:17 51°13.677 2°55.924 2.8 40 15.2 101750 83
2001-08-02 01:52:22 51°13.676 2°55.924 2.1 43 15.2 101750 83
2001-08-02 01:52:27 51°13.676 2°55.924 2.5 50 15.2 101750 83
2001-08-02 01:52:32 51°13.676 2°55.924 2.8 33 15.2 101750 83
2001-08-02 01:52:37 51°13.676 2°55.924 3.2 34 15.2 101750 83
2001-08-02 01:52:42 51°13.676 2°55.924 1.9 43 15.2 101750 83
2001-08-02 01:52:47 51°13.677 2°55.924 2.8 42 15.2 101750 83
2001-08-02 01:52:52 51°13.677 2°55.924 2 55 15.2 101750 83
2001-08-02 01:52:57 51°13.677 2°55.924 2.1 49 15.2 101750 83
2001-08-02 01:53:02 51°13.677 2°55.924 2.2 49 15.2 101750 83
2001-08-02 01:53:07 51°13.677 2°55.924 2.1 130 15.2 101750 82
2001-08-02 01:53:12 51°13.677 2°55.924 1.6 40 15.2 101750 82
2001-08-02 01:53:17 51°13.677 2°55.924 2.8 38 15.2 101750 82
2001-08-02 01:53:22 51°13.677 2°55.924 3.2 40 15.2 101750 82
2001-08-02 01:53:27 51°13.677 2°55.924 3.3 36 15.2 101750 82
2001-08-02 01:53:32 51°13.677 2°55.924 3.6 44 15.2 101750 82
2001-08-02 01:53:37 51°13.677 2°55.924 1.9 39 15.2 101750 82
2001-08-02 01:53:42 51°13.677 2°55.924 3 40 15.2 101750 82
2001-08-02 01:53:47 51°13.677 2°55.924 2.4 42 15.2 101750 82
2001-08-02 01:53:52 51°13.677 2°55.924 3.4 38 15.2 101750 82
2001-08-02 01:53:57 51°13.677 2°55.924 2.1 44 15.2 101750 82
2001-08-02 01:54:02 51°13.677 2°55.924 2 40 15.2 101750 82
2001-08-02 01:54:07 51°13.677 2°55.924 2.8 45 15.2 101750 82
2001-08-02 01:54:12 51°13.677 2°55.924 2.3 38 15.2 101750 82
2001-08-02 01:54:17 51°13.677 2°55.924 1.9 133 15.2 101750 82
2001-08-02 01:54:22 51°13.677 2°55.924 1.7 45 15.2 101750 82
2001-08-02 01:54:27 51°13.677 2°55.924 2.6 28 15.2 101750 82
2001-08-02 01:54:32 51°13.677 2°55.924 1.4 43 15.2 101750 82
2001-08-02 01:54:37 51°13.677 2°55.924 1.9 39 15.2 101750 82
2001-08-02 01:54:42 51°13.677 2°55.924 3.5 34 15.2 101750 82
2001-08-02 01:54:47 51°13.677 2°55.924 2.5 42 15.2 101750 82
2001-08-02 01:54:52 51°13.677 2°55.924 2.1 321 15.2 101750 82
2001-08-02 01:54:57 51°13.677 2°55.924 3.6 55 15.2 101750 82
2001-08-02 01:55:02 51°13.677 2°55.924 3.2 47 15.2 101750 82
2001-08-02 01:55:07 51°13.677 2°55.924 2.3 133 15.2 101750 82
2001-08-02 01:55:12 51°13.677 2°55.924 2.7 40 15.2 101750 82
2001-08-02 01:55:17 51°13.677 2°55.924 2.3 44 15.2 101750 82
2001-08-02 01:55:22 51°13.677 2°55.924 2 45 15.2 101750 82
2001-08-02 01:55:27 51°13.677 2°55.924 2 37 15.2 101750 82
2001-08-02 01:55:32 51°13.677 2°55.924 2.3 318 15.2 101750 82
2001-08-02 01:55:37 51°13.677 2°55.924 3 36 15.2 101750 82
2001-08-02 01:55:42 51°13.677 2°55.924 3.1 43 15.2 101750 82
2001-08-02 01:55:47 51°13.677 2°55.924 3.5 35 15.2 101750 82
2001-08-02 01:55:52 51°13.677 2°55.924 2.3 35 15.2 101750 82
2001-08-02 01:55:57 51°13.677 2°55.924 3 52 15.2 101750 82
2001-08-02 01:56:02 51°13.677 2°55.924 2 41 15.2 101750 82
2001-08-02 01:56:07 51°13.677 2°55.924 2.2 39 15.2 101750 82
2001-08-02 01:56:12 51°13.677 2°55.924 2.9 33 15.2 101750 82
2001-08-02 01:56:17 51°13.677 2°55.924 2.4 316 15.2 101750 82
2001-08-02 01:56:22 51°13.677 2°55.924 3.2 31 15.2 101750 82
2001-08-02 01:56:27 51°13.677 2°55.924 1.9 41 15.2 101750 82
2001-08-02 01:56:32 51°13.677 2°55.924 2.9 40 15.2 101750 82
2001-08-02 01:56:37 51°13.676 2°55.924 2.9 320 15.2 101750 82
2001-08-02 01:56:42 51°13.676 2°55.924 2.9 43 15.2 101750 82
2001-08-02 01:56:47 51°13.676 2°55.924 2.2 35 15.2 101750 82
2001-08-02 01:56:52 51°13.676 2°55.924 2.4 38 15.2 101750 82
2001-08-02 01:56:57 51°13.676 2°55.924 2.9 35 15.2 101750 82
2001-08-02 01:57:02 51°13.676 2°55.924 2.6 316 15.2 101750 82
2001-08-02 01:57:07 51°13.677 2°55.924 2.9 43 15.2 101750 82
2001-08-02 01:57:12 51°13.677 2°55.924 3 38 15.2 101750 82
2001-08-02 01:57:17 51°13.677 2°55.924 3 132 15.2 101750 82
2001-08-02 01:57:22 51°13.677 2°55.924 3.4 29 15.2 101750 82
2001-08-02 01:57:27 51°13.677 2°55.924 2.9 32 15.3 101750 82
2001-08-02 01:57:32 51°13.677 2°55.924 2.1 38 15.3 101750 82
2001-08-02 01:57:37 51°13.677 2°55.924 3.8 27 15.2 101750 82
2001-08-02 01:57:42 51°13.677 2°55.924 3.3 20 15.2 101750 82
2001-08-02 01:57:47 51°13.677 2°55.924 2.9 32 15.2 101750 82
2001-08-02 01:57:52 51°13.677 2°55.924 2.8 49 15.2 101750 82
2001-08-02 01:57:57 51°13.677 2°55.924 3.3 11 15.2 101750 82
2001-08-02 01:58:02 51°13.677 2°55.924 4.2 25 15.2 101750 82
2001-08-02 01:58:07 51°13.677 2°55.924 3.8 39 15.2 101750 82
2001-08-02 01:58:12 51°13.677 2°55.925 3.5 131 15.2 101750 82
2001-08-02 01:58:17 51°13.677 2°55.925 2.2 30 15.3 101750 82
2001-08-02 01:58:22 51°13.677 2°55.925 3.5 35 15.3 101750 82
2001-08-02 01:58:27 51°13.677 2°55.925 3.6 38 15.3 101750 82
2001-08-02 01:58:32 51°13.677 2°55.925 2.6 318 15.3 101750 82
2001-08-02 01:58:37 51°13.677 2°55.925 3.3 35 15.3 101740 82
2001-08-02 01:58:42 51°13.677 2°55.925 2.4 44 15.3 101740 82
2001-08-02 01:58:47 51°13.677 2°55.925 2.7 42 15.3 101750 82
2001-08-02 01:58:52 51°13.677 2°55.925 2.4 40 15.3 101750 82
2001-08-02 01:58:57 51°13.677 2°55.925 1.9 42 15.3 101750 82
2001-08-02 01:59:02 51°13.677 2°55.925 3.3 41 15.3 101750 82
2001-08-02 01:59:07 51°13.677 2°55.925 2.8 37 15.3 101750 82
2001-08-02 01:59:12 51°13.677 2°55.925 2.4 42 15.3 101750 82
2001-08-02 01:59:17 51°13.677 2°55.925 1.8 38 15.3 101750 82
2001-08-02 01:59:22 51°13.677 2°55.925 3.7 40 15.3 101750 82
2001-08-02 01:59:27 51°13.677 2°55.925 2.9 31 15.3 101750 82
2001-08-02 01:59:32 51°13.677 2°55.925 3.2 28 15.3 101750 82
2001-08-02 01:59:37 51°13.677 2°55.925 2.5 33 15.3 101750 82
2001-08-02 01:59:42 51°13.677 2°55.926 1.3 318 15.3 101750 82
2001-08-02 01:59:47 51°13.677 2°55.926 2.5 37 15.3 101750 82
2001-08-02 01:59:52 51°13.677 2°55.926 1.7 46 15.3 101750 82
2001-08-02 01:59:57 51°13.677 2°55.925 1.9 45 15.3 101750 82
2001-08-02 02:00:02 51°13.677 2°55.925 1.8 50 15.3 101750 82
2001-08-02 02:00:07 51°13.677 2°55.926 1.3 41 15.3 101750 82
2001-08-02 02:00:12 51°13.677 2°55.926 2.4 133 15.3 101750 82
2001-08-02 02:00:17 51°13.677 2°55.926 2 27 15.3 101750 82
2001-08-02 02:00:22 51°13.677 2°55.926 4.2 36 15.3 101750 82
2001-08-02 02:00:27 51°13.677 2°55.926 3.4 43 15.3 101760 82
2001-08-02 02:00:32 51°13.677 2°55.926 2.2 42 15.3 101760 82
2001-08-02 02:00:37 51°13.677 2°55.925 2.4 38 15.3 101750 82
2001-08-02 02:00:42 51°13.677 2°55.925 2.6 34 15.3 101750 82
2001-08-02 02:00:47 51°13.677 2°55.925 4.1 29 15.3 101750 82
2001-08-02 02:00:52 51°13.677 2°55.925 3.6 34 15.3 101750 82
2001-08-02 02:00:57 51°13.677 2°55.925 2.7 43 15.3 101750 82
2001-08-02 02:01:02 51°13.677 2°55.925 1.8 133 15.3 101750 82
2001-08-02 02:01:07 51°13.677 2°55.925 1.7 36 15.3 101760 82
2001-08-02 02:01:12 51°13.677 2°55.925 2.9 42 15.3 101760 82
2001-08-02 02:01:17 51°13.677 2°55.925 2.6 46 15.3 101750 82
2001-08-02 02:01:22 51°13.677 2°55.925 3.4 36 15.3 101750 82
2001-08-02 02:01:27 51°13.677 2°55.925 1.6 41 15.3 101760 82
2001-08-02 02:01:32 51°13.677 2°55.925 2.9 46 15.3 101760 82
2001-08-02 02:01:37 51°13.677 2°55.925 2.6 45 15.3 101750 81
2001-08-02 02:01:42 51°13.677 2°55.925 1.9 41 15.3 101750 81
2001-08-02 02:01:47 51°13.677 2°55.925 1.5 41 15.3 101760 81
2001-08-02 02:01:52 51°13.677 2°55.925 3.1 37 15.3 101760 81
2001-08-02 02:01:57 51°13.677 2°55.925 3.3 33 15.3 101750 81
2001-08-02 02:02:02 51°13.677 2°55.925 1.7 47 15.3 101750 81
2001-08-02 02:02:07 51°13.677 2°55.925 3.5 43 15.3 101760 81
2001-08-02 02:02:12 51°13.677 2°55.925 2 57 15.3 101760 81
2001-08-02 02:02:17 51°13.677 2°55.925 2.1 52 15.3 101760 81
2001-08-02 02:02:22 51°13.677 2°55.925 2.5 37 15.3 101760 81
2001-08-02 02:02:27 51°13.677 2°55.925 1.7 39 15.3 101760 81
2001-08-02 02:02:32 51°13.677 2°55.925 2.2 41 15.3 101760 81
2001-08-02 02:02:37 51°13.677 2°55.925 2.2 22 15.3 101760 81
2001-08-02 02:02:42 51°13.677 2°55.925 1.2 38 15.3 101760 81
2001-08-02 02:02:47 51°13.677 2°55.925 2.5 49 15.3 101760 81
2001-08-02 02:02:52 51°13.677 2°55.925 3.8 49 15.3 101760 81
2001-08-02 02:02:57 51°13.677 2°55.925 3.2 35 15.3 101760 81
2001-08-02 02:03:02 51°13.677 2°55.925 3 35 15.3 101760 81
2001-08-02 02:03:07 51°13.677 2°55.925 2.5 43 15.3 101760 81
2001-08-02 02:03:12 51°13.677 2°55.925 3.2 48 15.3 101760 81
2001-08-02 02:03:17 51°13.677 2°55.925 2.5 17 15.3 101760 81
2001-08-02 02:03:22 51°13.677 2°55.925 2.4 349 15.3 101760 81
2001-08-02 02:03:27 51°13.677 2°55.925 2.2 44 15.3 101760 81
2001-08-02 02:03:32 51°13.677 2°55.925 3.7 28 15.3 101760 81
2001-08-02 02:03:37 51°13.677 2°55.925 1.5 38 15.3 101760 81
2001-08-02 02:03:42 51°13.677 2°55.925 1.9 53 15.3 101760 81
2001-08-02 02:03:47 51°13.677 2°55.925 1.9 42 15.3 101760 81
2001-08-02 02:03:52 51°13.677 2°55.924 3.6 28 15.3 101760 81
2001-08-02 02:03:57 51°13.677 2°55.924 2.7 38 15.3 101760 81
2001-08-02 02:04:02 51°13.678 2°55.924 2.6 38 15.3 101760 81
2001-08-02 02:04:07 51°13.678 2°55.924 2.6 38 15.3 101760 81
2001-08-02 02:04:12 51°13.678 2°55.924 3.3 26 15.3 101760 81
2001-08-02 02:04:17 51°13.678 2°55.924 2.6 45 15.3 101760 81
2001-08-02 02:04:22 51°13.678 2°55.924 3.4 51 15.3 101760 81
2001-08-02 02:04:27 51°13.678 2°55.924 2.6 50 15.3 101760 81
2001-08-02 02:04:32 51°13.678 2°55.924 3.5 318 15.3 101760 81
2001-08-02 02:04:37 51°13.678 2°55.924 2.7 35 15.3 101760 81
2001-08-02 02:04:42 51°13.678 2°55.924 2.7 35 15.3 101760 81
2001-08-02 02:04:47 51°13.678 2°55.924 3.8 60 15.3 101760 81
2001-08-02 02:04:52 51°13.678 2°55.924 3.2 32 15.3 101760 81
2001-08-02 02:04:57 51°13.678 2°55.924 2.8 131 15.3 101760 81
2001-08-02 02:05:02 51°13.678 2°55.924 2.9 42 15.3 101760 81
2001-08-02 02:05:07 51°13.679 2°55.924 1.6 43 15.3 101760 81
2001-08-02 02:05:12 51°13.679 2°55.924 2.7 35 15.3 101760 81
2001-08-02 02:05:17 51°13.679 2°55.924 2.2 41 15.3 101760 81
2001-08-02 02:05:22 51°13.679 2°55.924 2.7 39 15.3 101760 81
2001-08-02 02:05:27 51°13.678 2°55.923 3.9 38 15.3 101760 81
2001-08-02 02:05:32 51°13.678 2°55.923 2.8 39 15.3 101760 81
2001-08-02 02:05:37 51°13.678 2°55.923 1.5 40 15.3 101760 81
2001-08-02 02:05:42 51°13.677 2°55.923 2 44 15.3 101760 81
2001-08-02 02:05:47 51°13.677 2°55.923 1.5 44 15.3 101760 81
2001-08-02 02:05:52 51°13.677 2°55.923 2 34 15.3 101760 81
2001-08-02 02:05:57 51°13.677 2°55.923 3.6 34 15.3 101760 81
2001-08-02 02:06:02 51°13.677 2°55.923 4.7 31 15.3 101760 81
2001-08-02 02:06:07 51°13.677 2°55.923 3.2 40 15.3 101750 81
2001-08-02 02:06:12 51°13.677 2°55.923 2.4 42 15.3 101750 81
2001-08-02 02:06:17 51°13.677 2°55.923 2.3 132 15.3 101750 81
2001-08-02 02:06:22 51°13.677 2°55.923 3.3 39 15.3 101750 81
2001-08-02 02:06:27 51°13.677 2°55.924 4.2 32 15.3 101750 81
2001-08-02 02:06:32 51°13.677 2°55.924 2.7 43 15.3 101750 81
2001-08-02 02:06:37 51°13.678 2°55.924 2.2 41 15.3 101750 81
2001-08-02 02:06:42 51°13.678 2°55.924 2.4 47 15.3 101750 81
2001-08-02 02:06:47 51°13.677 2°55.924 2.3 33 15.3 101750 81
2001-08-02 02:06:52 51°13.677 2°55.924 4.5 36 15.3 101750 81
2001-08-02 02:06:57 51°13.677 2°55.924 4.9 31 15.3 101750 81
2001-08-02 02:07:02 51°13.677 2°55.924 5.1 32 15.3 101750 81
2001-08-02 02:07:07 51°13.677 2°55.924 3.1 40 15.3 101750 81
2001-08-02 02:07:12 51°13.678 2°55.924 2 34 15.3 101750 81
2001-08-02 02:07:17 51°13.678 2°55.924 2 44 15.3 101750 81
2001-08-02 02:07:22 51°13.678 2°55.924 3 50 15.3 101750 81
2001-08-02 02:07:27 51°13.677 2°55.924 3.4 40 15.3 101750 81
2001-08-02 02:07:32 51°13.677 2°55.924 2.4 40 15.3 101750 81
2001-08-02 02:07:37 51°13.677 2°55.924 3.8 43 15.3 101750 81
2001-08-02 02:07:42 51°13.677 2°55.924 3.3 40 15.3 101750 81
2001-08-02 02:07:47 51°13.678 2°55.924 3.8 320 15.3 101750 81
2001-08-02 02:07:52 51°13.678 2°55.924 3.1 41 15.3 101750 81
2001-08-02 02:07:57 51°13.679 2°55.925 2.9 36 15.3 101750 81
2001-08-02 02:08:02 51°13.679 2°55.925 2.7 32 15.3 101750 81
2001-08-02 02:08:07 51°13.679 2°55.924 5 22 15.3 101750 81
2001-08-02 02:08:12 51°13.678 2°55.924 3.6 39 15.3 101750 81
2001-08-02 02:08:17 51°13.678 2°55.924 3.5 32 15.3 101740 81
2001-08-02 02:08:22 51°13.679 2°55.924 3.8 36 15.3 101740 81
2001-08-02 02:08:27 51°13.679 2°55.925 3.9 34 15.4 101750 81
2001-08-02 02:08:32 51°13.678 2°55.924 3.5 28 15.4 101750 81
2001-08-02 02:08:37 51°13.678 2°55.924 4.1 26 15.4 101740 81
2001-08-02 02:08:42 51°13.678 2°55.924 2.1 43 15.4 101740 81
2001-08-02 02:08:47 51°13.678 2°55.924 4.8 32 15.4 101750 81
2001-08-02 02:08:52 51°13.678 2°55.924 5 36 15.4 101750 81
2001-08-02 02:08:57 51°13.678 2°55.924 4.7 33 15.4 101740 81
2001-08-02 02:09:02 51°13.678 2°55.924 3.1 35 15.4 101740 81
2001-08-02 02:09:07 51°13.677 2°55.924 4.5 34 15.4 101740 81
2001-08-02 02:09:12 51°13.677 2°55.924 4.3 31 15.4 101740 81
2001-08-02 02:09:17 51°13.677 2°55.924 5.3 36 15.4 101740 81
2001-08-02 02:09:22 51°13.677 2°55.924 2.8 29 15.4 101740 81
2001-08-02 02:09:27 51°13.677 2°55.924 1.8 318 15.4 101740 81
2001-08-02 02:09:32 51°13.677 2°55.924 4 48 15.4 101740 81
2001-08-02 02:09:37 51°13.677 2°55.924 3.3 33 15.4 101740 81
2001-08-02 02:09:42 51°13.677 2°55.924 2.1 40 15.4 101740 81
2001-08-02 02:09:47 51°13.677 2°55.924 2 35 15.4 101740 81
2001-08-02 02:09:52 51°13.677 2°55.924 2.5 43 15.4 101740 81
2001-08-02 02:09:57 51°13.677 2°55.924 2.2 45 15.4 101740 80
2001-08-02 02:10:02 51°13.677 2°55.924 2.2 317 15.4 101740 80
2001-08-02 02:10:07 51°13.677 2°55.924 1.8 38 15.4 101740 80
2001-08-02 02:10:12 51°13.677 2°55.924 3.3 20 15.4 101740 80
2001-08-02 02:10:17 51°13.677 2°55.924 3.5 31 15.4 101740 80
2001-08-02 02:10:22 51°13.677 2°55.924 3.1 41 15.4 101740 80
2001-08-02 02:10:27 51°13.677 2°55.924 2.3 43 15.4 101730 80
2001-08-02 02:10:32 51°13.677 2°55.924 1.4 41 15.4 101730 80
2001-08-02 02:10:37 51°13.677 2°55.924 2.6 131 15.4 101730 80
2001-08-02 02:10:42 51°13.677 2°55.924 2.4 56 15.4 101730 80
2001-08-02 02:10:47 51°13.677 2°55.924 1.7 317 15.4 101730 80
2001-08-02 02:10:52 51°13.677 2°55.924 3.2 43 15.4 101730 80
2001-08-02 02:10:57 51°13.677 2°55.924 3.5 31 15.4 101730 80
2001-08-02 02:11:02 51°13.677 2°55.923 2.4 30 15.4 101730 80
2001-08-02 02:11:07 51°13.677 2°55.923 2.7 36 15.4 101730 80
2001-08-02 02:11:12 51°13.678 2°55.923 3 35 15.4 101730 80
2001-08-02 02:11:17 51°13.678 2°55.923 3.9 33 15.4 101730 80
2001-08-02 02:11:22 51°13.678 2°55.923 4.7 39 15.4 101730 80
2001-08-02 02:11:27 51°13.677 2°55.923 2.4 43 15.4 101730 80
2001-08-02 02:11:32 51°13.677 2°55.923 3 30 15.4 101730 80
2001-08-02 02:11:37 51°13.677 2°55.923 5.3 28 15.4 101730 80
2001-08-02 02:11:42 51°13.677 2°55.923 3.7 321 15.4 101730 80
2001-08-02 02:11:47 51°13.677 2°55.923 3.2 43 15.4 101730 80
2001-08-02 02:11:52 51°13.677 2°55.923 2.4 37 15.4 101730 80
2001-08-02 02:11:57 51°13.677 2°55.923 2.8 40 15.4 101720 80
2001-08-02 02:12:02 51°13.677 2°55.923 3.2 319 15.4 101720 80
2001-08-02 02:12:07 51°13.678 2°55.923 4.3 33 15.4 101730 80
2001-08-02 02:12:12 51°13.678 2°55.923 2.9 34 15.4 101730 80
2001-08-02 02:12:17 51°13.678 2°55.923 2.8 39 15.4 101730 80
2001-08-02 02:12:22 51°13.678 2°55.923 2.2 48 15.4 101730 80
2001-08-02 02:12:27 51°13.678 2°55.923 3.9 38 15.4 101730 80
2001-08-02 02:12:32 51°13.678 2°55.923 4.5 37 15.4 101730 80
2001-08-02 02:12:37 51°13.678 2°55.923 3.9 129 15.4 101730 80
2001-08-02 02:12:42 51°13.678 2°55.923 2.8 317 15.4 101730 80
2001-08-02 02:12:47 51°13.678 2°55.923 2.8 317 15.4 101720 80
2001-08-02 02:12:52 51°13.677 2°55.923 2.2 50 15.4 101720 80
2001-08-02 02:12:57 51°13.677 2°55.923 2.5 42 15.4 101720 80
2001-08-02 02:13:02 51°13.677 2°55.923 2.7 51 15.4 101720 80
2001-08-02 02:13:07 51°13.677 2°55.923 3.4 48 15.4 101730 80
2001-08-02 02:13:12 51°13.677 2°55.923 2.8 44 15.4 101730 80
2001-08-02 02:13:17 51°13.677 2°55.923 4.4 33 15.4 101720 80
2001-08-02 02:13:22 51°13.677 2°55.923 2.7 44 15.4 101720 80
2001-08-02 02:13:27 51°13.677 2°55.923 2.5 316 15.4 101720 80
2001-08-02 02:13:32 51°13.677 2°55.923 3.5 317 15.4 101720 80
2001-08-02 02:13:37 51°13.677 2°55.923 3.3 43 15.4 101720 80
2001-08-02 02:13:42 51°13.677 2°55.923 3.4 317 15.4 101720 80
2001-08-02 02:13:47 51°13.677 2°55.923 2.3 41 15.4 101720 80
2001-08-02 02:13:52 51°13.677 2°55.923 3.1 317 15.4 101720 80
2001-08-02 02:13:57 51°13.677 2°55.923 4.7 38 15.4 101720 80
2001-08-02 02:14:02 51°13.677 2°55.923 5 34 15.4 101720 80
2001-08-02 02:14:07 51°13.677 2°55.923 4.5 41 15.4 101720 80
2001-08-02 02:14:12 51°13.677 2°55.923 2.2 39 15.4 101720 80
2001-08-02 02:14:17 51°13.677 2°55.923 4.8 33 15.4 101720 80
2001-08-02 02:14:22 51°13.677 2°55.923 4.8 47 15.4 101720 80
2001-08-02 02:14:27 51°13.677 2°55.923 2.3 318 15.4 101720 80
2001-08-02 02:14:32 51°13.677 2°55.923 2.1 42 15.4 101720 80
2001-08-02 02:14:37 51°13.677 2°55.923 3.1 322 15.4 101720 80
2001-08-02 02:14:42 51°13.677 2°55.923 3.3 46 15.4 101720 80
2001-08-02 02:14:47 51°13.677 2°55.923 2.8 39 15.4 101720 80
2001-08-02 02:14:52 51°13.677 2°55.923 3.9 42 15.4 101720 80
2001-08-02 02:14:57 51°13.677 2°55.923 3.3 40 15.4 101720 80
2001-08-02 02:15:02 51°13.677 2°55.923 2.9 35 15.4 101720 80
2001-08-02 02:15:07 51°13.677 2°55.923 2.7 44 15.4 101720 80
2001-08-02 02:15:12 51°13.677 2°55.923 3.4 47 15.4 101720 80
2001-08-02 02:15:17 51°13.677 2°55.923 3 59 15.4 101720 80
2001-08-02 02:15:22 51°13.677 2°55.923 4.6 317 15.4 101720 80
2001-08-02 02:15:27 51°13.677 2°55.923 2.5 41 15.4 101720 80
2001-08-02 02:15:32 51°13.677 2°55.923 3.4 40 15.4 101720 80
2001-08-02 02:15:37 51°13.677 2°55.923 3 43 15.4 101720 80
2001-08-02 02:15:42 51°13.677 2°55.923 2.7 44 15.4 101720 80
2001-08-02 02:15:47 51°13.677 2°55.923 3.9 34 15.4 101720 80
2001-08-02 02:15:52 51°13.677 2°55.923 3.6 44 15.4 101720 80
2001-08-02 02:15:57 51°13.677 2°55.923 2.2 132 15.4 101720 80
2001-08-02 02:16:02 51°13.677 2°55.923 2.6 42 15.4 101720 80
2001-08-02 02:16:07 51°13.677 2°55.923 2 321 15.4 101720 80
2001-08-02 02:16:12 51°13.677 2°55.923 2.4 41 15.4 101720 80
2001-08-02 02:16:17 51°13.677 2°55.923 2.6 41 15.4 101720 80
2001-08-02 02:16:22 51°13.677 2°55.923 2.4 45 15.4 101720 80
2001-08-02 02:16:27 51°13.677 2°55.923 2.5 322 15.4 101710 80
2001-08-02 02:16:32 51°13.677 2°55.923 3 31 15.4 101710 80
2001-08-02 02:16:37 51°13.677 2°55.923 2.3 36 15.4 101720 80
2001-08-02 02:16:42 51°13.677 2°55.923 2.3 41 15.4 101720 80
2001-08-02 02:16:47 51°13.677 2°55.923 2 39 15.4 101720 80
2001-08-02 02:16:52 51°13.677 2°55.923 3.1 43 15.4 101720 80
2001-08-02 02:16:57 51°13.677 2°55.923 3 43 15.4 101720 80
2001-08-02 02:17:02 51°13.677 2°55.923 3.3 41 15.4 101720 80
2001-08-02 02:17:07 51°13.677 2°55.923 4.1 51 15.4 101720 80
2001-08-02 02:17:12 51°13.677 2°55.923 3.1 40 15.4 101720 80
2001-08-02 02:17:17 51°13.677 2°55.923 4 42 15.4 101720 80
2001-08-02 02:17:22 51°13.677 2°55.923 2.5 43 15.4 101720 80
2001-08-02 02:17:27 51°13.677 2°55.923 2.3 45 15.4 101720 80
2001-08-02 02:17:32 51°13.677 2°55.923 2.4 40 15.4 101720 80
2001-08-02 02:17:37 51°13.677 2°55.923 2.8 48 15.4 101710 80
2001-08-02 02:17:42 51°13.677 2°55.923 3.6 41 15.4 101710 80
2001-08-02 02:17:47 51°13.677 2°55.923 2.8 43 15.3 101710 80
2001-08-02 02:17:52 51°13.677 2°55.924 3.2 41 15.3 101710 80
2001-08-02 02:17:57 51°13.677 2°55.924 2.1 42 15.3 101720 80
2001-08-02 02:18:02 51°13.677 2°55.924 2 44 15.3 101720 80
2001-08-02 02:18:07 51°13.677 2°55.924 2.6 41 15.3 101720 80
2001-08-02 02:18:12 51°13.677 2°55.924 4.8 35 15.3 101720 80
2001-08-02 02:18:17 51°13.677 2°55.924 2.4 40 15.3 101710 80
2001-08-02 02:18:22 51°13.677 2°55.924 2.2 39 15.3 101710 80
2001-08-02 02:18:27 51°13.677 2°55.924 2.2 43 15.3 101710 80
2001-08-02 02:18:32 51°13.677 2°55.924 2.2 44 15.3 101710 80
2001-08-02 02:18:37 51°13.677 2°55.924 4.3 45 15.3 101710 80
2001-08-02 02:18:42 51°13.677 2°55.924 3.2 44 15.3 101710 80
2001-08-02 02:18:47 51°13.677 2°55.924 2.7 38 15.3 101710 80
2001-08-02 02:18:52 51°13.677 2°55.924 3.2 133 15.3 101710 80
2001-08-02 02:18:57 51°13.677 2°55.924 2.4 42 15.3 101710 80
2001-08-02 02:19:02 51°13.677 2°55.924 4.3 36 15.3 101710 80
2001-08-02 02:19:07 51°13.677 2°55.924 3.2 48 15.3 101710 80
2001-08-02 02:19:12 51°13.677 2°55.924 2.7 36 15.3 101710 80
2001-08-02 02:19:17 51°13.677 2°55.923 4 52 15.3 101710 80
2001-08-02 02:19:22 51°13.677 2°55.923 3.3 37 15.3 101710 80
2001-08-02 02:19:27 51°13.677 2°55.923 3 34 15.3 101710 80
2001-08-02 02:19:32 51°13.677 2°55.923 1.7 39 15.3 101710 80
2001-08-02 02:19:37 51°13.677 2°55.924 2.7 132 15.3 101710 80
2001-08-02 02:19:42 51°13.677 2°55.924 3.5 35 15.3 101710 80
2001-08-02 02:19:47 51°13.677 2°55.924 5 46 15.3 101710 80
2001-08-02 02:19:52 51°13.677 2°55.924 3.9 131 15.3 101710 80
2001-08-02 02:19:57 51°13.677 2°55.924 5.4 43 15.3 101710 80
2001-08-02 02:20:02 51°13.677 2°55.924 3.9 40 15.3 101710 80
2001-08-02 02:20:07 51°13.677 2°55.924 4.3 319 15.3 101710 80
2001-08-02 02:20:12 51°13.677 2°55.924 3.7 45 15.3 101710 80
2001-08-02 02:20:17 51°13.678 2°55.924 2.6 38 15.3 101710 80
2001-08-02 02:20:22 51°13.678 2°55.924 4.1 131 15.3 101710 80
2001-08-02 02:20:27 51°13.678 2°55.924 2.9 42 15.3 101710 80
2001-08-02 02:20:32 51°13.678 2°55.924 3 46 15.3 101710 80
2001-08-02 02:20:37 51°13.678 2°55.924 2.2 318 15.3 101710 80
2001-08-02 02:20:42 51°13.678 2°55.924 3 45 15.3 101710 80
2001-08-02 02:20:47 51°13.678 2°55.924 2.9 38 15.3 101710 80
2001-08-02 02:20:52 51°13.678 2°55.924 2.9 40 15.3 101710 80
2001-08-02 02:20:57 51°13.677 2°55.924 4 38 15.2 101710 80
2001-08-02 02:21:02 51°13.677 2°55.924 4.9 49 15.2 101710 80
2001-08-02 02:21:07 51°13.677 2°55.924 3.5 42 15.2 101710 80
2001-08-02 02:21:12 51°13.677 2°55.924 4.1 37 15.2 101710 80
2001-08-02 02:21:17 51°13.677 2°55.924 2.8 51 15.3 101710 80
2001-08-02 02:21:22 51°13.677 2°55.924 2.9 42 15.3 101710 80
2001-08-02 02:21:27 51°13.677 2°55.924 2.8 37 15.2 101710 80
2001-08-02 02:21:32 51°13.677 2°55.924 3.5 43 15.2 101710 80
2001-08-02 02:21:37 51°13.677 2°55.924 3.3 43 15.2 101710 80
2001-08-02 02:21:42 51°13.677 2°55.924 2.9 45 15.2 101710 80
2001-08-02 02:21:47 51°13.677 2°55.923 3.3 45 15.2 101710 80
2001-08-02 02:21:52 51°13.677 2°55.923 3.9 42 15.2 101710 80
2001-08-02 02:21:57 51°13.677 2°55.924 2.7 39 15.2 101710 80
2001-08-02 02:22:02 51°13.677 2°55.924 2.5 39 15.2 101710 80
2001-08-02 02:22:07 51°13.677 2°55.924 3.7 36 15.2 101710 81
2001-08-02 02:22:12 51°13.677 2°55.924 4.7 34 15.2 101710 81
2001-08-02 02:22:17 51°13.677 2°55.924 3.6 45 15.2 101710 81
2001-08-02 02:22:22 51°13.677 2°55.924 2.9 41 15.2 101710 81
2001-08-02 02:22:27 51°13.677 2°55.924 4 36 15.2 101710 81
2001-08-02 02:22:32 51°13.677 2°55.924 3.6 37 15.2 101710 81
2001-08-02 02:22:37 51°13.677 2°55.924 2.7 133 15.2 101710 81
2001-08-02 02:22:42 51°13.677 2°55.924 2.6 42 15.2 101710 81
2001-08-02 02:22:47 51°13.677 2°55.924 3.7 39 15.2 101710 81
2001-08-02 02:22:52 51°13.677 2°55.924 3 41 15.2 101710 81
2001-08-02 02:22:57 51°13.677 2°55.924 5.6 320 15.2 101710 81
2001-08-02 02:23:02 51°13.677 2°55.923 3.2 41 15.2 101710 81
2001-08-02 02:23:07 51°13.677 2°55.923 3.2 41 15.2 101710 81
2001-08-02 02:23:12 51°13.677 2°55.923 2.4 44 15.2 101710 81
2001-08-02 02:23:17 51°13.677 2°55.923 4.3 133 15.2 101710 81
2001-08-02 02:23:22 51°13.677 2°55.923 2.8 39 15.2 101710 81